When you browse on this site, cookies collect data to enhance your experience and personalize the content and advertising you see.
Visit our Privacy Policy to learn more. By continuing to use the site, you agree to this use of cookies and data.
EN

Hourly Weather Gogaz

Today, 24 September, Thursday

Time Temperature Precipitation Wind Pressure Humidity
00:00 +8°C° 0 mm 1 mps 586 mmHg 85%
01:00 +8°C° 0 mm 1 mps 585 mmHg 85%
02:00 +8°C° 0 mm 1 mps 585 mmHg 84%
03:00 +7°C° 0 mm 1 mps 585 mmHg 84%
04:00 +7°C° 0 mm 1 mps 585 mmHg 82%
05:00 +7°C° 0 mm 1 mps 585 mmHg 80%
06:00 +7°C° 0 mm 1 mps 585 mmHg 78%
07:00 +10°C° 0 mm 1 mps 586 mmHg 72%
08:00 +12°C° 0 mm 1 mps 588 mmHg 66%
09:00 +14°C° 0 mm 1 mps 589 mmHg 60%
10:00 +14°C° 0 mm 2 mps 589 mmHg 61%
11:00 +15°C° 0 mm 2 mps 589 mmHg 61%
12:00 +16°C° 0 mm 2 mps 589 mmHg 61%
13:00 +15°C° 0.3 mm 2 mps 588 mmHg 65%
14:00 +15°C° 0.3 mm 2 mps 588 mmHg 68%
15:00 +14°C° 0.3 mm 2 mps 588 mmHg 71%
16:00 +13°C° 0.1 mm 2 mps 587 mmHg 78%
17:00 +12°C° 0.1 mm 1 mps 587 mmHg 85%
18:00 +10°C° 0.1 mm 1 mps 586 mmHg 92%
19:00 +10°C° 0 mm 1 mps 586 mmHg 90%
20:00 +9°C° 0 mm 0 mps 586 mmHg 89%
21:00 +8°C° 0 mm 0 mps 586 mmHg 87%
22:00 +8°C° 0 mm 0 mps 586 mmHg 85%
23:00 +8°C° 0 mm 0 mps 586 mmHg 84%

Tomorrow, 25 September, Friday

Time Temperature Precipitation Wind Pressure Humidity
00:00 +9°C° 0 mm 1 mps 585 mmHg 82%
01:00 +9°C° 0 mm 1 mps 585 mmHg 80%
02:00 +8°C° 0 mm 1 mps 585 mmHg 79%
03:00 +8°C° 0 mm 1 mps 585 mmHg 77%
04:00 +8°C° 0 mm 1 mps 585 mmHg 76%
05:00 +8°C° 0 mm 1 mps 585 mmHg 75%
06:00 +8°C° 0 mm 1 mps 585 mmHg 75%
07:00 +10°C° 0 mm 1 mps 586 mmHg 70%
08:00 +12°C° 0 mm 1 mps 587 mmHg 66%
09:00 +14°C° 0 mm 1 mps 587 mmHg 62%
10:00 +14°C° 0.2 mm 2 mps 588 mmHg 62%
11:00 +15°C° 0.2 mm 2 mps 588 mmHg 62%
12:00 +16°C° 0.2 mm 3 mps 588 mmHg 62%
13:00 +14°C° 0.5 mm 3 mps 587 mmHg 63%
14:00 +14°C° 0.5 mm 3 mps 587 mmHg 64%
15:00 +15°C° 0.5 mm 2 mps 587 mmHg 65%
16:00 +13°C° 0.1 mm 2 mps 586 mmHg 68%
17:00 +12°C° 0.1 mm 1 mps 585 mmHg 72%
18:00 +9°C° 0.1 mm 0 mps 584 mmHg 76%
19:00 +9°C° 0 mm 0 mps 585 mmHg 76%
20:00 +9°C° 0 mm 0 mps 585 mmHg 75%
21:00 +9°C° 0 mm 0 mps 585 mmHg 75%
22:00 +10°C° 0 mm 1 mps 585 mmHg 75%
23:00 +10°C° 0 mm 1 mps 584 mmHg 76%

Day after tomorrow, 26 September, Saturday

Time Temperature Precipitation Wind Pressure Humidity
00:00 +9°C° 0 mm 1 mps 584 mmHg 77%
01:00 +9°C° 0 mm 1 mps 584 mmHg 77%
02:00 +9°C° 0 mm 1 mps 584 mmHg 78%
03:00 +9°C° 0 mm 1 mps 583 mmHg 78%
04:00 +9°C° 0 mm 1 mps 583 mmHg 77%
05:00 +9°C° 0 mm 1 mps 584 mmHg 76%
06:00 +8°C° 0 mm 0 mps 584 mmHg 76%
07:00 +11°C° 0 mm 1 mps 584 mmHg 71%
08:00 +12°C° 0 mm 1 mps 585 mmHg 65%
09:00 +14°C° 0 mm 2 mps 586 mmHg 60%
10:00 +14°C° 0.3 mm 2 mps 586 mmHg 59%
11:00 +14°C° 0.3 mm 2 mps 586 mmHg 57%
12:00 +14°C° 0.3 mm 3 mps 586 mmHg 55%
13:00 +14°C° 0.4 mm 3 mps 586 mmHg 57%
14:00 +13°C° 0.4 mm 3 mps 586 mmHg 58%
15:00 +14°C° 0.4 mm 2 mps 586 mmHg 60%
16:00 +12°C° 0.1 mm 2 mps 585 mmHg 68%
17:00 +11°C° 0.1 mm 1 mps 584 mmHg 76%
18:00 +9°C° 0.1 mm 1 mps 584 mmHg 85%
19:00 +9°C° 0 mm 1 mps 584 mmHg 84%
20:00 +9°C° 0 mm 1 mps 584 mmHg 83%
21:00 +8°C° 0 mm 1 mps 584 mmHg 83%
22:00 +8°C° 0 mm 1 mps 584 mmHg 83%
23:00 +8°C° 0 mm 1 mps 584 mmHg 83%

27 September, Sunday

Time Temperature Precipitation Wind Pressure Humidity
00:00 +7°C° 0 mm 1 mps 584 mmHg 83%
01:00 +8°C° 0 mm 1 mps 584 mmHg 82%
02:00 +8°C° 0 mm 1 mps 584 mmHg 80%
03:00 +8°C° 0 mm 1 mps 584 mmHg 78%
04:00 +7°C° 0 mm 1 mps 584 mmHg 79%
05:00 +7°C° 0 mm 1 mps 584 mmHg 80%
06:00 +7°C° 0 mm 1 mps 584 mmHg 80%
07:00 +9°C° 0 mm 1 mps 585 mmHg 76%
08:00 +11°C° 0 mm 1 mps 586 mmHg 71%
09:00 +12°C° 0 mm 2 mps 587 mmHg 66%
10:00 +13°C° 0.1 mm 2 mps 587 mmHg 65%
11:00 +14°C° 0.1 mm 2 mps 588 mmHg 65%
12:00 +13°C° 0.1 mm 3 mps 588 mmHg 64%
13:00 +14°C° 0.1 mm 2 mps 588 mmHg 65%
14:00 +14°C° 0.1 mm 2 mps 588 mmHg 66%
15:00 +13°C° 0.1 mm 2 mps 587 mmHg 66%
16:00 +12°C° 0 mm 2 mps 587 mmHg 72%
17:00 +10°C° 0 mm 1 mps 586 mmHg 78%
18:00 +9°C° 0 mm 1 mps 586 mmHg 83%
19:00 +9°C° 0 mm 1 mps 586 mmHg 81%
20:00 +9°C° 0 mm 1 mps 586 mmHg 80%
21:00 +8°C° 0 mm 1 mps 586 mmHg 78%
22:00 +8°C° 0 mm 1 mps 586 mmHg 76%
23:00 +8°C° 0 mm 1 mps 587 mmHg 75%

28 September, Monday

Time Temperature Precipitation Wind Pressure Humidity
00:00 +8°C° 0 mm 1 mps 587 mmHg 74%
01:00 +8°C° 0 mm 1 mps 587 mmHg 72%
02:00 +8°C° 0 mm 1 mps 587 mmHg 71%
03:00 +8°C° 0 mm 1 mps 587 mmHg 70%
04:00 +8°C° 0 mm 1 mps 587 mmHg 69%
05:00 +8°C° 0 mm 1 mps 587 mmHg 69%
06:00 +8°C° 0 mm 1 mps 587 mmHg 68%
07:00 +11°C° 0 mm 1 mps 588 mmHg 62%
08:00 +13°C° 0 mm 1 mps 590 mmHg 57%
09:00 +15°C° 0 mm 1 mps 591 mmHg 51%
10:00 +15°C° 0 mm 1 mps 591 mmHg 51%
11:00 +16°C° 0 mm 2 mps 591 mmHg 51%
12:00 +16°C° 0 mm 2 mps 591 mmHg 51%
13:00 +15°C° 0.1 mm 2 mps 591 mmHg 54%
14:00 +15°C° 0.1 mm 2 mps 591 mmHg 57%
15:00 +14°C° 0.1 mm 2 mps 590 mmHg 60%
16:00 +13°C° 0.1 mm 1 mps 590 mmHg 68%
17:00 +11°C° 0.1 mm 1 mps 589 mmHg 76%
18:00 +9°C° 0.1 mm 0 mps 588 mmHg 84%
19:00 +9°C° 0 mm 0 mps 589 mmHg 83%
20:00 +9°C° 0 mm 0 mps 589 mmHg 82%
21:00 +9°C° 0 mm 0 mps 589 mmHg 81%
22:00 +8°C° 0 mm 0 mps 589 mmHg 81%
23:00 +9°C° 0 mm 1 mps 588 mmHg 81%

29 September, Tuesday

Time Temperature Precipitation Wind Pressure Humidity
00:00 +9°C° 0 mm 1 mps 588 mmHg 81%
01:00 +8°C° 0 mm 1 mps 588 mmHg 81%
02:00 +8°C° 0 mm 1 mps 588 mmHg 80%
03:00 +8°C° 0 mm 1 mps 587 mmHg 80%
04:00 +8°C° 0 mm 1 mps 587 mmHg 79%
05:00 +8°C° 0 mm 1 mps 587 mmHg 79%
06:00 +8°C° 0 mm 1 mps 587 mmHg 78%
07:00 +10°C° 0 mm 1 mps 588 mmHg 72%
08:00 +12°C° 0 mm 1 mps 589 mmHg 66%
09:00 +13°C° 0 mm 2 mps 590 mmHg 60%
10:00 +14°C° 0 mm 2 mps 590 mmHg 59%
11:00 +14°C° 0 mm 2 mps 590 mmHg 59%
12:00 +14°C° 0 mm 3 mps 590 mmHg 59%
13:00 +14°C° 0.1 mm 2 mps 589 mmHg 61%
14:00 +14°C° 0.1 mm 2 mps 588 mmHg 63%
15:00 +14°C° 0.1 mm 2 mps 588 mmHg 64%
16:00 +12°C° 0 mm 2 mps 587 mmHg 71%
17:00 +10°C° 0 mm 1 mps 586 mmHg 78%
18:00 +9°C° 0 mm 1 mps 585 mmHg 85%
19:00 +8°C° 0 mm 1 mps 585 mmHg 84%
20:00 +8°C° 0 mm 1 mps 585 mmHg 83%
21:00 +8°C° 0 mm 1 mps 585 mmHg 82%
22:00 +8°C° 0 mm 1 mps 585 mmHg 81%
23:00 +8°C° 0 mm 1 mps 585 mmHg 80%
Show more